#timestamp,LO_Frequency,Hit,StdDev 
1607770815.6,286046994.9,Y
1607770835.5,286046996.5,P
1607770855.3,286046997.8,N
1607770875.1,286046999.3,N
1607770895.9,286046996.6,Y
1607770915.7,286046998.3,P
1607770935.6,286047000.3,P
1607770955.4,286047000.7,N
1607770975.2,286046999.0,N
1607770995.1,286046998.9,N
1607770996.0,286046998.9,N
1607771015.8,286046996.9,Y
1607771035.6,286046999.1,P
1607771055.5,286046996.8,P
1607771075.3,286047000.0,N
1607771095.2,286047001.0,N
1607771115.9,286047000.9,N
1607771135.7,286047001.6,N
1607771155.6,286047004.4,N
1607771175.4,286047003.5,N
1607771195.2,286047005.5,N
1607771215.1,286047003.9,N
1607771216.0,286047003.9,N
1607771235.8,286047004.2,N
1607771255.7,286047004.3,N
1607771275.5,286047004.2,N
1607771295.3,286047004.3,N
1607771315.2,286047004.2,N
1607771335.0,286047004.2,N
1607771335.9,286047004.2,N
1607771355.8,286047002.8,N
1607771375.6,286046999.8,N
1607771395.4,286047000.1,N
1607771415.3,286047003.3,N
1607771435.1,286047003.8,N
1607771436.0,286047003.8,N
1607771455.8,286047003.7,N
1607771475.7,286047003.8,N
1607771495.5,286047003.2,N
1607771515.4,286047003.0,N
1607771535.2,286047002.3,N
1607771555.0,286047002.6,N
1607771555.9,286047002.6,N
1607771575.8,286047000.0,N
1607771595.6,286047002.6,N
1607771615.4,286046998.1,N
1607771635.3,286047002.0,N
1607771655.1,286047001.4,N
1607771675.8,286047001.9,N
1607771695.7,286047002.7,N
1607771715.5,286047002.2,N
1607771735.4,286046999.9,N
1607771755.2,286046999.7,N
1607771775.0,286047002.8,N
1607771775.9,286047002.8,N
1607771795.8,286047003.6,N
1607771815.6,286047003.2,N
1607771835.4,286047003.3,N
1607771855.3,286047003.3,N
1607771875.1,286046999.8,N
1607771895.9,286047002.3,N
1607771915.7,286047002.1,N
1607771935.5,286047003.6,N
1607771955.4,286047005.1,Y
1607771975.2,286047004.1,P
1607771995.1,286047004.5,P
1607771996.0,286047004.5,P
1607772015.8,286047003.6,Y
1607772035.6,286046997.0,P
1607772055.5,286046999.5,N
1607772075.3,286046994.9,N
1607772095.1,286046995.4,N
1607772115.9,286046995.5,N
1607772135.7,286046995.6,N
1607772155.6,286046996.6,N
1607772175.4,286046997.3,N
1607772195.2,286046997.1,N
1607772215.1,286046996.7,N
1607772216.0,286046996.7,N
1607772235.8,286046994.9,N
1607772255.7,286046996.2,N
1607772275.5,286046994.0,N
1607772295.3,286046993.7,N
1607772315.2,286046994.2,N
1607772335.9,286046996.6,N
1607772355.7,286046997.0,N
1607772375.6,286046997.7,N
1607772395.4,286046999.6,N
1607772415.3,286046998.3,N
1607772435.1,286046998.4,N
1607772436.0,286046998.4,N
1607772455.8,286046997.0,N
1607772475.7,286046995.0,N
1607772495.5,286046996.0,N
1607772515.3,286046994.2,N
1607772535.2,286046999.1,N
1607772555.0,286046997.3,N
1607772555.9,286046997.3,N
1607772575.7,286046995.7,N
1607772595.6,286046994.9,Y
1607772615.4,286046999.2,P
1607772635.3,286046998.6,N
1607772655.1,286046997.7,N
1607772675.8,286046997.6,N
1607772695.7,286046995.2,Y
1607772715.5,286046998.2,P
1607772735.4,286047000.2,N
1607772755.2,286046999.7,N
1607772775.0,286047001.8,N
1607772775.9,286047001.8,N
1607772795.8,286047001.4,N
1607772815.6,286047000.6,N
1607772835.4,286046996.5,N
1607772855.3,286046998.6,N
1607772875.1,286047001.2,N
1607772895.9,286047000.2,N
1607772915.7,286047001.8,N
1607772935.5,286046998.8,N
1607772955.4,286046998.6,N
1607772975.2,286046998.1,N
1607772995.0,286046999.9,N
1607772995.9,286046999.9,N
1607773015.8,286047000.7,N
1607773035.6,286046999.4,N
1607773055.5,286046996.5,N
1607773075.3,286046998.4,N
1607773095.1,286046998.8,N
1607773115.9,286046999.4,N
1607773135.7,286046996.5,N
1607773155.5,286046996.7,N
1607773175.4,286046999.5,N
1607773195.2,286047001.1,N
1607773215.1,286047000.4,N
1607773216.0,286047000.4,N
1607773235.8,286047001.4,N
1607773255.6,286047001.4,N
1607773275.5,286046999.8,N
1607773295.3,286047003.9,N
1607773315.2,286047003.6,N
1607773335.9,286047004.0,N
1607773355.7,286047004.0,N
1607773375.6,286047003.9,N
1607773395.4,286047002.1,N
1607773415.2,286047002.4,N
1607773435.1,286047000.4,N
1607773436.0,286047000.4,N
1607773455.8,286046999.5,N
1607773475.7,286046996.9,N
1607773495.5,286047001.1,N
1607773515.3,286046999.0,N
1607773535.2,286046998.3,N
1607773555.0,286046998.5,N
1607773555.9,286046998.5,N
1607773575.7,286047001.2,N
1607773595.6,286046999.0,N
1607773615.4,286046998.4,N
1607773635.3,286047001.2,N
1607773655.1,286047002.2,N
1607773656.0,286047002.2,N
1607773675.8,286047000.9,N
1607773695.7,286047001.9,N
1607773715.5,286047001.6,N
1607773735.3,286047004.3,N
1607773755.2,286046998.2,N
1607773775.0,286047000.0,N
1607773775.9,286047000.0,N
1607773795.8,286047000.4,N
1607773815.6,286047001.9,N
1607773835.4,286047001.9,N
1607773855.3,286047001.6,N
1607773875.1,286047000.1,N
1607773895.8,286047001.1,N
1607773915.7,286047001.0,N
1607773935.5,286046999.8,N
1607773955.4,286047000.6,N
1607773975.2,286046999.4,N
1607773995.0,286047002.6,N
1607773995.9,286047002.6,N
1607774015.8,286047002.1,N
1607774035.6,286047002.0,N
1607774055.5,286047000.2,N
1607774075.3,286047001.0,N
1607774095.1,286047003.9,N
1607774115.9,286047001.7,N
1607774135.7,286047001.4,N
1607774155.5,286047001.7,N
1607774175.4,286047003.2,N
1607774195.2,286047001.7,N
1607774215.1,286047002.5,N
1607774216.0,286047002.5,N
1607774235.8,286047001.9,N
1607774255.6,286047001.4,N
1607774275.5,286047001.8,N
1607774295.3,286047001.6,N
1607774315.2,286047001.9,N
1607774335.9,286047004.2,Y
1607774355.7,286047000.3,P
1607774375.6,286047000.7,N
1607774395.4,286047002.4,P
